Regional Weather Roundup
Issued by NWS

Home | Current Version | Previous Version | Text Only | Print | Product List | Glossary Off
Versions: 1 2 3 4 5 6 7 8 9 10 11 12 13 14 15 16 17 18 19 20 21 22 23 24 25 26 27 28 29 30 31 32 33 34 35 36 37 38 39 40 41 42 43 44 45 46 47 48 49 50

000
ASUS45 KPSR 010910
RWRAZ

ARIZONA HOURLY REGIONAL WEATHER ROUNDUP
NATIONAL WEATHER SERVICE PHOENIX AZ
200 AM MST SAT OCT 01 2016

NOTE: FAIR INDICATES FEW OR NO CLOUDS BELOW 12,000 FEET WITH NO
SIGNIFICANT WEATHER AND/OR OBSTRUCTIONS TO VISIBILITY.

AZZ001>003-036-011000-
NORTHWEST ARIZONA

CITY           SKY/WX    TMP DP  RH WIND       PRES   REMARKS
BULLHEAD CITY  PTCLDY    81  52  36 SE6       29.92R
KINGMAN        CLEAR     61  32  33 S3        30.09F
$$

AZZ004>008-015-016-018-011000-
NORTH CENTRAL ARIZONA

CITY           SKY/WX    TMP DP  RH WIND       PRES   REMARKS
GRAND CANYON   CLEAR     44  41  89 CALM      30.30S
PRESCOTT       PTCLDY    52  49  89 SW6       30.21S
FLAGSTAFF      PTCLDY    41  40  96 CALM      30.31F
PAYSON         CLEAR     57  43  58 CALM      30.24F
PAGE           CLEAR     62  53  72 S5        30.14S
$$

AZZ009>014-017-011000-
NORTHEAST ARIZONA

CITY           SKY/WX    TMP DP  RH WIND       PRES   REMARKS
WINSLOW        CLEAR     52  49  89 CALM      30.21S
SAINT JOHNS    CLEAR     51  48  89 CALM      30.24S
WINDOW ROCK    CLEAR     45  42  89 CALM      30.30S
SHOW LOW       CLEAR     48  45  87 S5        30.29F
$$

AZZ023-011000-
GREATER PHOENIX AREA

CITY           SKY/WX    TMP DP  RH WIND       PRES   REMARKS
PHOENIX        PTCLDY    79  57  46 E6        29.95S
BUCKEYE        PTCLDY    77  54  44 E5        29.96S
LUKE AFB       PTCLDY    74  55  51 N7        29.95S
DEER VALLEY    CLEAR     77  48  35 NE5       29.97S
SCOTTSDALE     CLEAR     76  54  46 CALM      29.99S
MESA-GATEWAY   CLEAR     72  57  60 SE6       29.99S
$$

AZZ027-028-011000-
SOUTHWEST MARICOPA COUNTY AND PINAL COUNTY

CITY           SKY/WX    TMP DP  RH WIND       PRES   REMARKS
CASA GRANDE    CLEAR     73  54  49 E3        30.00S
GILA BEND      MOCLDY    79  54  40 S7        29.93S
$$

AZZ503-504-507>509-011000-
SOUTHEAST ARIZONA

CITY           SKY/WX    TMP DP  RH WIND       PRES   REMARKS
TUCSON         CLEAR     67  59  75 SE7       30.08S
DAVIS-MONTHAN  CLEAR     67  58  73 SE8       30.08S
NOGALES        CLEAR     58  53  84 E5        30.16S
SIERRA VISTA   CLEAR     59  53  79 S7        30.20F
DOUGLAS        CLEAR     56  54  93 NE5       30.17F
SAFFORD        LGT RAIN  61  57  87 CALM      30.10S
$$

AZZ020-021-025-026-031-011000-
SOUTHWEST ARIZONA

CITY           SKY/WX    TMP DP  RH WIND       PRES   REMARKS
YUMA           CLEAR     81  59  47 S6        29.90S
$$

CAZ031-033-041-043-047-048-061-011000-
SOUTHERN CALIFORNIA

CITY           SKY/WX    TMP DP  RH WIND       PRES   REMARKS
DOWNTOWN L.A.  CLEAR     69  60  73 CALM      29.98R
L.A. AIRPORT   CLEAR     67  61  81 W5        29.98S
SAN DIEGO      PTCLDY    70  66  87 N3        30.00S
BURBANK        CLEAR     69  53  56 E3        29.99R
ONTARIO        CLEAR     68  49  50 CALM      30.00S
RIVERSIDE      CLEAR     70  52  52 CALM      30.00S
PALM SPRINGS   CLEAR     80  51  36 CALM      29.92R
EL CENTRO NAS  CLEAR     79  49  34 W6        29.89S
IMPERIAL       CLEAR     84  54  35 W9        29.87S
BLYTHE         CLEAR     83  52  34 S6        29.89S
NEEDLES          N/A    N/A N/A N/A MISG      29.92R
$$

NVZ020-UTZ003-011000-
SOUTHERN NEVADA-UTAH

CITY           SKY/WX    TMP DP  RH WIND       PRES   REMARKS
LAS VEGAS      PTCLDY    78  42  27 S6        29.97R
SALT LAKE CITY CLEAR     64  48  56 SE12      30.06S
$$

NMZ009-TXZ055-011000-
NEW MEXICO-WEST TEXAS

CITY           SKY/WX    TMP DP  RH WIND       PRES   REMARKS
ALBUQUERQUE    PTCLDY    58  54  86 SE7       30.22S
EL PASO        PTCLDY    64  60  87 S6        30.15S
$$


........................KEY........................
SKY/WX - SKY CONDITION/WEATHER
TMP    - TEMPERATURE IN FAHRENHEIT
DP     - DEW POINT IN FAHRENHEIT
RH     - RELATIVE HUMIDITY IN PERCENT
WIND   - DIRECTION AND SPEED IN MILES PER HOUR (MPH)
VRB    - VARIABLE WIND DIRECTION
PRES   - MEAN SEA LEVEL PRESSURE IN INCHES OF MERCURY
         F - FALLING PRESSURE   R - RISING PRESSURE
         S - STEADY PRESSURE
VSB    - VISIBILITY IN MILES
HX     - HEAT INDEX IN FAHRENHEIT
WCI    - WIND CHILL INDEX IN FAHRENHEIT
TC     - TEMPERATURE IN CELSIUS WHICH IS ALSO KNOWN AS
         TEMPERATURE IN CENTIGRADE
AFB    - AIR FORCE BASE
         LUKE AFB IS LUKE AIR FORCE BASE
         DAVIS-MONTHAN IS DAVIS-MONTHAN AIR FORCE BASE
NAS    - NAVAL AIR STATION
         EL CENTRO NAS IS EL CENTRO NAVAL AIR STATION
N/A    - NOT AVAILABLE




USA.gov is the U.S. government's official web portal to all federal, state and local government web resources and services.